Regional Weather Roundup
Issued by NWS Northern Indiana

Home | Current Version | Previous Version | Graphics & Text | Print | Product List | Glossary On
Versions: 1 2 3 4 5 6 7 8 9 10 11 12 13 14 15 16 17 18 19 20 21 22 23 24 25 26 27 28 29 30 31 32 33 34 35 36 37 38 39 40 41 42 43 44 45 46 47 48 49 50
000
ASUS43 KIWX 201800
RWRIWX

KIWX WEATHER ROUNDUP
NATIONAL WEATHER SERVICE NORTHERN INDIANA
100 PM EST SAT JAN 20 2018

NOTE: "FAIR" INDICATES FEW OR NO CLOUDS BELOW 12,000 FEET WITH NO
SIGNIFICANT WEATHER AND/OR OBSTRUCTIONS TO VISIBILITY.

* THESE STATIONS ARE NOT UNDER NWS QUALITY CONTROL. THEY ALSO MAY NOT
  REPORT WEATHER SUCH AS PRECIPITATION OR FOG.

INZ001>027-201900-
NORTHERN INDIANA

CITY           SKY/WX    TMP DP  RH WIND       PRES   REMARKS
GARY*          MOSUNNY   43  30  61 SW12      29.96S
KNOX*          FAIR      37  32  81 SW8       29.97F
SOUTH BEND     FAIR      37  29  72 SW13      29.97S
6HR MIN TEMP:  30; 6HR MAX TEMP:  37;

ELKHART*       SUNNY     39  28  65 SW8       29.96F
GOSHEN         FAIR      36  29  75 SW14G22   29.97F
6HR MIN TEMP:  30; 6HR MAX TEMP:  36;

MONTICELLO*    FAIR      38  30  72 SW10      30.00F
6HR MIN TEMP:  30; 6HR MAX TEMP:  38;

FORT WAYNE     PTSUNNY   39  31  72 SW12      29.99F
6HR MIN TEMP:  31; 6HR MAX TEMP:  39;

PERU/GRISSOM   FAIR      39  33  81 SW12      29.99F
6HR MIN TEMP:  31; 6HR MAX TEMP:  39;


$$
INZ028>050-201900-
CENTRAL INDIANA

CITY           SKY/WX    TMP DP  RH WIND       PRES   REMARKS
LAFAYETTE      FAIR      40  32  73 SW8       30.01F
6HR MIN TEMP:  30; 6HR MAX TEMP:  40;

MUNCIE*        FAIR      41  28  60 SW12      30.02F
6HR MIN TEMP:  33; 6HR MAX TEMP:  41;

INDIANAPOLIS   PTSUNNY   44  31  60 SW15      30.04F
6HR MIN TEMP:  32; 6HR MAX TEMP:  44;


$$
MIZ043>046-050>051-056>058-064>065-071>073-077>080-201900-
SOUTHWEST LOWER MICHIGAN

CITY           SKY/WX    TMP DP  RH WIND       PRES   REMARKS
BATTLE CREEK   FAIR      38  29  70 SW12      29.93F
6HR MIN TEMP:  31; 6HR MAX TEMP:  38;

BENTON HARBOR  FAIR      41  29  62 SW14      29.94F
6HR MIN TEMP:  32; 6HR MAX TEMP:  41;

COLDWATER*     FAIR      37  29  72 SW10      29.94F
6HR MIN TEMP:  31; 6HR MAX TEMP:  37;

HILLSDALE*     FAIR      37  28  70 SW13      29.92F
HOLLAND        FAIR      40  32  73 SW14      29.93F
6HR MIN TEMP:  35; 6HR MAX TEMP:  40;

GRAND RAPIDS   PTSUNNY   41  31  67 W14       29.91F
6HR MIN TEMP:  35; 6HR MAX TEMP:  41;

KALAMAZOO      FAIR      40  29  64 SW12      29.93F
6HR MIN TEMP:  30; 6HR MAX TEMP:  41;

THREE RIVERS*  FAIR      40  29  63 SW8       29.95S
6HR MIN TEMP:  30; 6HR MAX TEMP:  40;


$$
OHZ001>008-015>018-024>025-201900-
NORTHWEST OHIO

CITY           SKY/WX    TMP DP  RH WIND       PRES   REMARKS
FINDLAY        FAIR      41  28  60 SW13      29.99F
6HR MIN TEMP:  34; 6HR MAX TEMP:  41;

TOLEDO EXPRESS FAIR      39  29  67 SW17G25   29.96F
6HR MIN TEMP:  33; 6HR MAX TEMP:  39;

TOLEDO METCALF FAIR      39  29  67 SW17      29.97F
6HR MIN TEMP:  31; 6HR MAX TEMP:  39;

LIMA           FAIR      38  28  67 SW14      30.01S
6HR MIN TEMP:  33; 6HR MAX TEMP:  38;


$$
AND FOR LAKE MICHIGAN COASTAL AND OPEN LAKE BUOY OBSERVATIONS

STATION/POSITION TEMP    WIND        PRES    VSBY  WAVE
                 AIR SEA DIR/SP/G                  HT/PER
                 (F)     (DEG/KT/KT) (MB)    (MI)  (FT/S)
CALUMET HARBOR    40     210/  9/ 16 1013.6R
MICHIGAN CITY     39     200/ 10/ 11   N/A
BURNS HARBOR      40     210/ 13/ 16 1014.9F
SAINT JOSEPH      36     210/ 10/ 17 1014.9

$$
&&




USA.gov is the U.S. government's official web portal to all federal, state and local government web resources and services.